Flag for Germany Weather past 2 weeks in Bitterfeld-Wolfen, Saxony-Anhalt, Germany

Now
70 °F

Scattered clouds.


Feels Like: 70 °F
Forecast: 49 / 70 °F
Wind: 5 mph from North

Location: Leipzig-Schkeuditz


UV Index: 3 (Moderate)

Visibility: N/A


Pressure: 30.07 "Hg

Humidity: 50%

Dew point: 50 °F

Location of Bitterfeld-WolfenLocation

Historic Weather in Bitterfeld-Wolfen

°F

Bitterfeld-Wolfen temperature yesterday

Maximum temperature yesterday: 68 °F (at 3:50 PM)
Minimum temperature yesterday: 45 °F (at 4:20 AM)
Average temperature yesterday: 57 °F

Past Weeks' High & Low Weather Summary

 TemperatureHumidityPressure
High68 °F (Apr 22, 3:50 PM)100% (Apr 10, 12:50 AM)30.45 "Hg (Apr 10, 12:50 AM)
Low34 °F (Apr 17, 5:20 AM)33% (Apr 17, 1:20 PM)29.68 "Hg (Apr 21, 1:50 PM)
Average50 °F75%30.01 "Hg
* Reported Apr 8 4:20 PM — Apr 23 4:20 PM, Bitterfeld-Wolfen, Weather by CustomWeather, © 2014

Note: Actual official high and low records may vary slightly from our data, if they occured in-between our weather recording intervals... More about our weather records

Advertising

Historic Weather Conditions — Data for Previous 24 hours

 ConditionsComfort  
Time TempWeatherWind HumidityBarometerVisibility
4:20 PM
Apr 23
68 °FScattered clouds.6 mph46%30.09 "HgN/A
3:50 PM68 °FPassing clouds.3 mph49%30.09 "HgN/A
3:20 PM68 °FScattered clouds.5 mph49%30.09 "HgN/A
2:50 PM68 °FScattered clouds.6 mph53%30.09 "HgN/A
2:20 PM66 °FScattered clouds.3 mph56%30.09 "HgN/A
1:50 PM66 °FScattered clouds.3 mph64%30.09 "HgN/A
1:20 PM68 °FScattered clouds.5 mph60%30.12 "HgN/A
12:50 PM66 °FScattered clouds.5 mph60%30.12 "HgN/A
12:20 PM64 °FScattered clouds.5 mph56%30.12 "HgN/A
11:50 AM64 °FPassing clouds.5 mph68%30.12 "HgN/A
11:20 AM63 °FSunny.2 mph68%30.12 "Hg10 mi
10:50 AM63 °FSunny.2 mph73%30.12 "Hg10 mi
10:20 AM61 °FSunny.3 mph72%30.12 "Hg10 mi
9:50 AM59 °FSunny.5 mph77%30.09 "Hg10 mi
9:20 AM55 °FSunny.5 mph88%30.09 "Hg10 mi
8:50 AM54 °FSunny.6 mph88%30.09 "Hg10 mi
8:20 AM52 °FSunny.7 mph94%30.09 "Hg10 mi
7:50 AM52 °FSunny.7 mph88%30.07 "Hg10 mi
7:20 AM50 °FFog.7 mph100%30.07 "HgN/A
6:50 AM46 °FFog.6 mph100%30.07 "HgN/A
6:20 AM46 °FFog.5 mph93%30.07 "HgN/A
5:50 AM46 °FFog.5 mph93%30.04 "HgN/A
5:20 AM48 °FClear.5 mph94%30.04 "Hg10 mi
4:50 AM48 °FClear.6 mph94%30.04 "Hg10 mi
4:20 AM50 °FClear.8 mph88%30.04 "Hg10 mi
3:50 AM50 °FClear.7 mph88%30.04 "Hg10 mi
3:20 AM50 °FClear.9 mph88%30.01 "Hg10 mi
2:50 AM54 °FClear.8 mph82%30.01 "Hg10 mi
2:20 AM54 °FClear.7 mph82%30.01 "Hg10 mi
1:50 AM55 °FClear.6 mph77%30.01 "Hg10 mi
1:20 AM55 °FClear.5 mph77%30.01 "Hg10 mi
12:50 AM55 °FClear.6 mph77%30.01 "Hg10 mi
12:20 AM55 °FClear.5 mph77%29.98 "Hg10 mi
11:50 PM
Apr 22
55 °FClear.6 mph77%29.98 "Hg10 mi
11:20 PM57 °FClear.6 mph72%29.98 "Hg10 mi
10:50 PM55 °FClear.6 mph77%29.98 "Hg10 mi
10:20 PM57 °FClear.5 mph67%29.98 "Hg10 mi
9:50 PM55 °FClear.5 mph72%29.95 "Hg10 mi
9:20 PM57 °FClear.5 mph72%29.95 "Hg10 mi
8:50 PM59 °FScattered clouds.3 mph63%29.95 "HgN/A
8:20 PM61 °FScattered clouds.5 mph63%29.92 "HgN/A
7:50 PM63 °FScattered clouds.5 mph59%29.92 "HgN/A
7:20 PM64 °FScattered clouds.6 mph56%29.92 "HgN/A
6:50 PM66 °FScattered clouds.6 mph49%29.92 "HgN/A
6:20 PM66 °FScattered clouds.6 mph49%29.89 "HgN/A
5:50 PM66 °FScattered clouds.8 mph46%29.89 "HgN/A
5:20 PM66 °FScattered clouds.6 mph56%29.89 "HgN/A
Weather by CustomWeather, © 2014

See weather overview